Volver al catálogo

FENGYUN 1C DEB

ActivoSSO
NORAD 31324·DEBRIS·🇨🇳 China

Lanzado May 10, 1999 desde Taiyuan Satellite Launch Center

Loading…

Próximos Pases (próximas 24 horas)

TLE

EnvejeciendoSource: Space-Track

Época: Sep 10, 2026, 01:00 UTC

1 31324U 99025BQC 26253.04212153  .00000117  00000-0  83895-4 0  9990
2 31324  99.1314 185.6158 0048657 258.4250 101.1458 14.14842076  2034

Sigue FENGYUN 1C DEB en tiempo real con AllMySat

Download on the App Store